Hourly Data Report for June 02, 2021

ST-JOVITE
QUEBEC
Current Station Operator: ECCC - MSC

46°04'49.000" N
74°33'21.000" W
238.50 m
703GDKB
71376
WJT

Download Data

Hourly Data (June 2021)
Hourly Data Report for June 2, 2021
TIME
LST
Temp Definition
°C
Dew Point Definition
°C
Rel Hum Definition
%
Precip. Amount Definition
mm

Wind Dir Definition
10's deg

Wind Spd Definition
km/h
Visibility Definition
km
Stn Press Definition
kPa
Hmdx Definition


Wind Chill Definition


Weather Definition


00:00 9.9 9.1 95 0.0   0   99.17     LegendNANA
01:00 9.9 9.2 96 0.0 0 1   99.18     LegendNANA
02:00 8.5 7.8 96 0.0 0 1   99.21     LegendNANA
03:00 8.1 7.6 97 0.0 0 1   99.24     LegendNANA
04:00 7.2 6.4 94 0.0 0 1   99.23     LegendNANA
05:00 5.9 5.3 96 0.0   0   99.29     LegendNANA
06:00 7.5 7.2 98 0.0   0   99.28     LegendNANA
07:00 10.5 10.1 97 0.0   0   99.31     LegendNANA
08:00 15.4 12.4 82 0.0 26 3   99.34     LegendNANA
09:00 20.1 11.2 56 0.0 18 2   99.30     LegendNANA
10:00 22.4 11.1 49 0.0 24 4   99.26     LegendNANA
11:00 24.9 8.6 35 0.0 24 6   99.23 26   LegendNANA
12:00 25.3 7.5 32 0.0 23 8   99.16 26   LegendNANA
13:00 26.3 6.1 28 0.0 24 5   99.09 26   LegendNANA
14:00 25.2 6.8 31 0.0 22 7   99.06 25   LegendNANA
15:00 24.5 6.2 31 0.0 20 6   99.02     LegendNANA
16:00 25.2 7.5 32 0.0 23 6   98.97 25   LegendNANA
17:00 23.8 8.5 38 0.0 25 6   98.94     LegendNANA
18:00 23.0 8.1 39 0.0 21 3   98.90     LegendNANA
19:00 20.3 9.2 49 0.0 0 1   98.87     LegendNANA
20:00 16.4 10.0 66 0.0 5 1   98.87     LegendNANA
21:00 16.1 9.8 66 0.0 7 3   98.89     LegendNANA
22:00 14.7 9.7 72 0.0 7 2   98.88     LegendNANA
23:00 12.9 8.9 77 0.0 0 1   98.87     LegendNANA

Notes on Data Quality.

Legend

  • E = Estimated
  • M = Missing
  • NA = Not Available*
  • [empty] = Indicates an unobserved value
Date modified: